SAUDISAT 1C (SO-50) (27607 NORAD) Tracking and Keplerian Element Data

This shows tracking and keplerian element data for the satellite.

Feedback or suggestion? Click here.




ElementValue
Catalog27607
NameSAUDISAT 1C (SO-50)
Epoch Orbit6350
Epoch Day269.53304951
Epoch Year2022
RAAN352.5522
Inclination64.5565
Eccentricity0.0081594
Argument of Perigee275.1478
Mean Anonmoly84.0316
Mean Motion14.76259521
Decay Rate7.47E-06
L11 27607U 02058C 22269.53304951 .00000747 00000+0 12235-3 0 9991
L22 27607 64.5565 352.5522 0081594 275.1478 84.0316 14.76259521 63508

Live tracking and technical data element details for SAUDISAT 1C (SO-50) (NORAD 27607). SAUDISAT 1C (SO-50) can be tracked NOW for your location showing map with azimuth and elevation plus other details from your city location.

Track the satellite on the map from your city or location and see movement details for azimuth, elevation, latitude, longitude, range, height, and movement on the map or in text.







IsCatalogInMostPopularTable: catalog: 27607, numindb: 644
Update: records affected: 1



GetName: 27607 SAUDISAT 1C (SO-50)

Hit Count: updated at: Thu, 29 Sep 2022 10:37:34 GMT